Location: ????????
(56.0167°N, 38.0333°E)
Time: 10:43:48
(UTC+00:00)

Cosmos 1743 - Pass Details

Date: 19 May 2025
Orbit: 432 x 442 km, 82.5° (Epoch: 13 June)

Event Time Altitude Azimuth Distance (km) Brightness Sun altitude
Rises 18:31:05 0° 342° (NNW) 2,472 7.6 -5.7°
Reaches altitude 10° 18:33:15 10° 335° (NNW) 1,593 6.8 -5.9°
Maximum altitude 18:36:29 38° 266° (W) 702 3.7 -6.2°
Drops below altitude 10° 18:39:42 10° 197° (SSW) 1,573 4.8 -6.5°
Enters shadow 18:41:51 - 189° (S) 2,452 5.7 -6.7°
